Location: Cumbre Roja
(10.2766°N, 67.0675°W)
Time: 23:16:25
(UTC+00:00)

Spot 4 Rocket - Pass Details

Date: 18 November 2025
Orbit: 769 x 773 km, 98.8° (Epoch: 14 December)

Event Time Altitude Azimuth Distance (km) Brightness Sun altitude
Rises 23:19:47 0° 169° (SSE) 3,232 7.3 -18.9°
Reaches altitude 10° 23:22:05 10° 169° (S) 2,305 6.5 -19.4°
Maximum altitude 23:27:10 83° 256° (WSW) 776 4.0 -20.6°
Drops below altitude 10° 23:32:15 10° 346° (NNW) 2,303 6.4 -21.8°
Sets 23:34:33 0° 347° (NNW) 3,229 7.2 -22.4°
